OpenBCM V1.07b12 (Linux)

Packet Radio Mailbox

DB0FHN

[JN59NK Nuernberg]

 Login: GUEST





  
I6KZR  > KEPLER   03.02.03 23:23l 317 Lines 15752 Bytes #999 (0) @ WW
BID : 21940_IK6WID
Read: DB0FHN GUEST
Subj: 2L Keplerian Elements #034
Path: DB0FHN<DB0RGB<OE5XBL<OE3XSR<OK0PCC<OK0NAG<OK0PPL<RZ6HXA<SP7MGD<IK6PYS<
      I6ZLO<IK6WID
Sent: 030203/2057Z @:IK6WID.#AP.IMAR.ITA.EU #:21940 [MONTE URANO]  FBB7.00i
From: I6KZR@IK6WID.#AP.IMAR.ITA.EU
To  : KEPLER@WW


OSCAR 7
1 07530U 74089B   03033.65055859 -.00000029 +00000-0 +10000-3 0 01577
2 07530 101.7641 081.5854 0012251 108.4593 251.7810 12.53564125291199
GOES 2
1 10061U 77048A   03028.56527598  .00000000  00000-0  10000-3 0   708
2 10061  14.1264  13.5931 0013180 196.1337 163.8523  0.99391768 38622
GOES 3
1 10953U 78062A   03032.98152591 -.00000105  00000-0  00000+0 0  9119
2 10953  13.4023  17.3578 0005248 340.5119  19.5083  1.00278711 43332
GOES 6
1 14050U 83041A   03028.11159657 +.00000042 +00000-0 +10000-3 0 04179
2 14050 010.3721 035.6208 0003104 350.7939 009.2480 01.00296104130420
OSCAR 10
1 14129U 83058B   03034.35061340 -.00000148  00000-0  10000-3 0  9148
2 14129  25.9028 166.8331 6027722 324.8138   7.1176  2.05866763119756
OSCAR 11 (UoSAT 2)
1 14781U 84021B   03033.97229848 +.00001297 +00000-0 +18728-3 0 00757
2 14781 098.1147 007.7788 0008198 262.4878 097.5401 14.77944798013935
NOAA 10
1 16969U 86073A   03033.98308849 +.00000142 +00000-0 +76431-4 0 06543
2 16969 098.7276 028.1266 0013022 129.2727 230.9610 14.27057207851689
GOES 7
1 17561U 87022A   03013.52827387  .00000116  00000-0  10000-3 0  8102
2 17561   7.5470  55.7264 0004064 288.6625 149.4031  1.00317770 41389
COSMOS 1861
1 18129U 87054A   03033.83934299 +.00000064 +00000-0 +53761-4 0 02125
2 18129 082.9259 158.1879 0010256 273.4205 086.5772 13.72699262782351
EUTELSAT 1-F4 (ECS 4)
1 18351U 87078B   03033.74471135 -.00000121  00000-0  00000+0 0   332
2 18351   7.1639  58.7088 0008052 194.6441 165.4400  0.98689338 42523
NOAA 11
1 19531U 88089A   03033.95022415 +.00000180 +00000-0 +11714-3 0 04901
2 19531 098.9029 115.3839 0010983 245.3571 114.6458 14.14529842740590
ASTRA 1A
1 19688U 88109B   03029.75771711  .00000026  00000-0  10000-3 0  5660
2 19688   1.3459  94.9986 0004915 207.7171 103.8285  1.00273261 31996
OSCAR 14 (UOSAT 3)
1 20437U 90005B   03034.18842536  .00000103  00000-0  54393-4 0  1564
2 20437  98.2745  78.5348 0009847 248.2603 111.7532 14.31232102680295
OSCAR 15 (UOSAT 4)
1 20438U 90005C   03034.12687998  .00000099  00000-0  53941-4 0  7713
2 20438  98.2489  67.6655 0009075 260.5708  99.4450 14.30193518679955
OSCAR 16 (PACSAT)
1 20439U 90005D   03033.71655913  .00000122  00000-0  61786-4 0  8466
2 20439  98.3206  89.6773 0010116 256.2501 103.7554 14.31464678680269
OSCAR 17 (DOVE)
1 20440U 90005E   03033.91820831 +.00000152 +00000-0 +72481-4 0 07290
2 20440 098.3388 093.7264 0010287 255.1786 104.8251 14.31742354680362
OSCAR 18 (WEBERSAT)
1 20441U 90005F   03034.53700132  .00000127  00000-0  63279-4 0    33
2 20441  98.3385  93.5432 0010792 253.0866 106.9136 14.31546944680432
OSCAR 19 (LUSAT)
1 20442U 90005G   03033.74838150  .00000141  00000-0  68647-4 0  9543
2 20442  98.3484  95.7791 0011061 255.6512 104.3436 14.31709575680370
JAS 1B (FUJI 2)
1 20480U 90013C   03033.95441392 -.00000000 +00000-0 +68154-4 0 04762
2 20480 099.0442 359.6364 0540911 039.2182 324.6838 12.83329300608510
HST
1 20580U 90037B   03034.43025535  .00084847  00000-0  69731-2 0  3163
2 20580  28.4632 136.4057 0003759 110.5110 335.4145 14.97746539500365
EUTELSAT 2-F1
1 20777U 90079B   03030.68024898 -.00000110  00000-0  10000-3 0   234
2 20777   3.4545  84.7257 0000759 290.8967  74.7691  1.00270725 25916
FENGYUN 1B
1 20788U 90081A   03033.97747665 -.00000159 +00000-0 -75173-4 0 08952
2 20788 099.0256 016.3131 0015028 274.7025 085.2423 14.02136347635353
EUTELSAT 2-F2
1 21056U 91003B   03028.05627895  .00000116  00000-0  10000-3 0  6137
2 21056   2.6793  88.1781 0003016 259.4382 207.9268  1.00269467 31664
INFORMATOR 1
1 21087U 91006A   03033.91258687 +.00000058 +00000-0 +45620-4 0 06080
2 21087 082.9435 328.9990 0034245 296.5158 063.2488 13.74924591602739
COSMOS 2123
1 21089U 91007A   03033.96153859 +.00000071 +00000-0 +59081-4 0 04958
2 21089 082.9207 192.9512 0028921 332.7302 027.2330 13.74402601601643
ASTRA 1B
1 21139U 91015A   03023.00000000  .00000124  00000-0  10000-3 0  1588
2 21139   0.0122 319.8851 0002995  65.1991 116.0459  1.00273184 31921
METEOSAT 5 (MOP 2)
1 21140U 91015B   03030.86842619  .00000009  00000-0  10000-3 0  6994
2 21140   5.5886  70.0779 0002689 145.8566 289.1893  1.00269534 45865
NOAA 12
1 21263U 91032A   03033.96692747 +.00000284 +00000-0 +13954-3 0 09593
2 21263 098.6241 023.8604 0013756 067.5321 292.7314 14.25069033608998
OSCAR 22 (UoSAT 5)
1 21575U 91050B   03034.21207219  .00000275  00000-0  10215-3 0  7162
2 21575  98.1391  27.1092 0007285 172.1052 188.0254 14.39142391606078
METEOR 3-5
1 21655U 91056A   03033.94810534 +.00000051 +00000-0 +10000-3 0 05270
2 21655 082.5528 049.8984 0012364 236.7811 123.2127 13.16978972551425
UARS
1 21701U 91063B   03033.79791035  .00000604  00000-0  63659-4 0  8150
2 21701  56.9816  95.8839 0005121 117.0088 243.1504 15.02822688623343
EUTELSAT 2-F3
1 21803U 91083A   03032.83724755  .00000116  00000-0  10000-3 0  5149
2 21803   2.5569  89.3217 0002611 252.8042 112.2879  1.00271909 36835
INMARSAT 2-F3
1 21814U 91084B   03033.37241860  .00000102  00000-0  10000-3 0  6082
2 21814   1.7134  57.8159 0002702 271.3032 155.0243  1.00271075 40735
INMARSAT 2-F4
1 21940U 92021B   03031.69489394 -.00000363  00000-0  10000-3 0  5677
2 21940   2.3651  19.1621 0001499 302.0485 168.4151  1.00268330 39506
EUTELSAT 2-F4
1 22028U 92041B   03028.97057872 -.00000106  00000-0  10000-3 0  3242
2 22028   1.6660  92.8484 0005860 216.6759 155.3765  1.00272003 31578
OSCAR 23 (KITSAT 1)
1 22077U 92052B   03033.94116349 -.00000037 +00000-0 +10000-3 0 02271
2 22077 066.0801 158.4517 0015456 278.2453 081.6812 12.86407968492297
ASTRA 1C
1 22653U 93031A   03023.00000000  .00000123  00000-0  10000-3 0  7844
2 22653   0.0122 319.8851 0002995  65.1991 116.0096  1.00273184 30626
METEOR 2-21
1 22782U 93055A   03034.49216652  .00000039  00000-0  21614-4 0  5084
2 22782  82.5449 226.8518 0023075  31.5245 328.7294 13.83531227476001
KITSAT B
1 22825U 93061C   03034.20761379  .00000121  00000-0  64067-4 0  4775
2 22825  98.2758  64.6861 0007795 310.1894  49.8606 14.28937013487689
POSAT 1
1 22826U 93061D   03033.61017956  .00000137  00000-0  70022-4 0  3005
2 22826  98.2776  65.2271 0008640 312.3737  47.6711 14.29159274487647
ITAMSAT
1 22828U 93061F   03033.59431594 +.00000104 +00000-0 +56671-4 0 04179
2 22828 098.2738 065.4770 0009336 289.4873 070.5299 14.29502190455843
EYESAT A
1 22829U 93061G   03033.60639720  .00000195  00000-0  91934-4 0  4400
2 22829  98.2757  66.0858 0009094 289.5707  70.4491 14.29759290487772
METEOSAT 6
1 22912U 93073B   03033.84967808  .00000054  00000-0  00000+0 0  6622
2 22912   2.6400  82.5010 0001379 211.7757 153.7074  1.00277749 32140
GOES 8
1 23051U 94022A   03034.42185608 -.00000257  00000-0  00000+0 0  5891
2 23051   0.2612 103.5931 0000934 295.7641 170.4684  1.00281783 39659
ASTRA 1D
1 23331U 94070A   03033.83994802  .00000130  00000-0  00000+0 0  8109
2 23331   0.0526 223.2039 0003712  34.6058 201.3307  1.00273376 30713
RADIO ROSTO
1 23439U 94085A   03033.50640412 -.00000042  00000-0  13461-4 0  6799
2 23439  64.8175  67.4555 0147166 118.2324 243.3477 11.27548155333785
NOAA 14
1 23455U 94089A   03033.96988699 +.00000098 +00000-0 +77551-4 0 05174
2 23455 099.1872 052.1265 0008605 274.3654 085.6534 14.13290567417278
HIMAWARI 5 (GMS 5)
1 23522U 95011B   03033.73317705 -.00000293  00000-0  00000+0 0   818
2 23522   1.7405  83.9287 0000441  22.1377  70.2343  1.00262757 28730
HOT BIRD 1
1 23537U 95016B   03013.80550721  .00000107  00000-0  10000-3 0  5332
2 23537   0.0070 236.2796 0008090  86.9786  92.5958  1.00275871 28611
GOES 9
1 23581U 95025A   03031.49884696  .00000115  00000-0  00000+0 0  4981
2 23581   0.3154 277.7072 0012790 253.4411 356.2791  1.00049027 28180
INMARSAT 3-F1
1 23839U 96020A   03032.95179197  .00000007  00000-0  00000+0 0  8601
2 23839   0.0630 340.0540 0004002 337.7074 220.4767  1.00270465 25043
ASTRA 1F
1 23842U 96021A   03023.00000000  .00000124  00000-0  10000-3 0  5576
2 23842   0.0122 319.8851 0002995  65.1991 116.0362  1.00273184 24851
JAS 2
1 24278U 96046B   03033.93648676 +.00000005 +00000-0 +43581-4 0 05666
2 24278 098.5337 187.2799 0349892 257.0674 099.1172 13.52870458319194
UNAMSAT
1 24305U 96052B   03034.18948052  .00000205  00000-0  20364-3 0  6591
2 24305  82.9344 274.1559 0028506 247.3090 112.5047 13.73450457321370
INMARSAT 3-F2
1 24307U 96053A   03032.96911458 -.00000134  00000-0  00000+0 0   797
2 24307   0.0664  16.8716 0004612 287.1197 161.0756  1.00270670 23454
HOT BIRD 2
1 24665U 96067A   03022.98977813  .00000000  00000-0  10000-3 0  3404
2 24665   0.0347 162.8644 0004202 151.1719 177.1880  1.00271548 22995
INMARSAT 3-F3
1 24674U 96070A   03034.41574416  .00000032  00000-0  10000-3 0  9828
2 24674   0.0341 322.5757 0004324 340.7153 157.6477  1.00274208 22432
GOES 10
1 24786U 97019A   03033.37646529  .00000074  00000-0  00000+0 0  5271
2 24786   0.0981 107.3395 0003109 217.8485 168.0804  1.00286714 21170
INMARSAT 3-F4
1 24819U 97027A   03032.42158473 -.00000296 +00000-0 +10000-3 0 08756
2 24819 000.0283 297.5727 0003877 018.9270 272.4104 01.00267337020832
FENGYUN 2A
1 24834U 97029A   03032.62147551 -.00000199  00000-0  00000+0 0  9525
2 24834   2.5306  88.6477 0003238 268.9222  83.0864  1.00260410 20663
HOT BIRD 3
1 24931U 97049A   03023.22766377  .00000000  00000-0  10000-3 0  4210
2 24931   0.0604 227.5595 0010036  81.3762 268.1866  1.00274291 19804
METEOSAT 7
1 24932U 97049B   03029.08980325 -.00000009  00000-0  00000+0 0  2406
2 24932   0.1718  58.2503 0000821 266.4382 195.6196  1.00275192 19817
